User: anonymous   Login
Location: Voyageurs National Park
(48.5020°N, 92.9292°W)
Time: 19:04:15
(UTC-06:00)
Language:

Terra - Orbit

View from above orbital plane
View from above orbital plane
View from above satellite
View from above satellite

Ground track
Ground track

The orbit data is extracted from the following two-line orbital elements,

1 25994U 99068A   14327.82721650  .00000786  00000-0  18465-3 0  8514
2 25994 098.2103 040.2712 0001275 086.1946 273.9351 14.57096881794312
Epoch (UTC): 23 November 2014 19:51:11
Eccentricity: 0.0001275
inclination: 98.2103°
perigee height: 701 km
apogee height: 703 km
right ascension of ascending node: 40.2712°
argument of perigee: 86.1946°
revolutions per day: 14.57096881
mean anomaly at epoch: 273.9351°
orbit number at epoch: 79431

The dashed part of the orbit path shows where the satellite is in the earth's shadow,  

DLR